GFSSGP_850_spd_159.txt.gz
Wind_Speed
12 12 8 3 2 4 3 7 3 2 3 5 6 4 4 0 7 4 13 20 33 39 36 33 29 25 22 19 21 23 24 24 23 22 21 20 18 16 16 16 16 15 15 15 14 13 12 11 11
10 9 5 3 4 3 5 5 6 4 4 6 6 7 3 2 2 0 4 25 33 37 36 33 30 27 23 20 21 24 24 23 23 23 22 20 19 17 17 16 16 15 14 13 13 12 11 10 11
9 11 7 4 4 8 5 6 9 2 3 5 3 1 5 10 4 14 11 32 38 37 35 33 31 28 24 22 21 23 24 23 22 22 22 21 19 17 16 15 15 14 13 12 11 10 9 9 9
7 7 3 4 10 7 8 7 7 4 3 0 2 5 8 11 9 21 24 35 42 39 35 33 32 29 25 23 22 23 23 23 22 21 20 19 17 16 15 14 13 12 11 10 8 7 7 7 6
10 4 2 4 10 5 5 10 4 3 2 2 3 3 10 11 7 15 34 35 44 40 36 33 32 31 27 24 22 22 23 22 21 20 19 17 16 15 14 13 12 10 9 8 6 6 5 5 5
6 2 2 10 8 8 6 10 6 3 7 7 5 6 5 13 9 17 33 36 40 38 36 34 32 31 28 25 22 21 21 21 20 19 17 16 14 13 12 11 10 9 8 7 5 5 5 5 5
6 4 5 4 13 13 2 11 11 7 7 10 18 4 6 13 11 22 32 38 39 37 36 34 33 31 28 26 23 21 20 20 19 18 17 16 14 12 10 9 8 7 6 5 5 5 6 6 6
6 4 4 7 8 6 5 11 13 7 14 21 34 8 8 24 21 30 35 40 38 37 35 35 35 34 31 27 24 22 20 18 18 18 17 15 13 11 9 7 5 4 4 4 4 4 5 6 7
9 2 6 6 7 3 5 4 2 4 9 6 28 18 20 30 32 35 39 39 38 37 36 36 37 34 31 28 25 22 20 18 18 18 17 15 13 10 8 6 5 5 4 4 5 5 5 6 7
5 4 7 6 5 2 5 4 7 6 0 3 6 13 30 40 37 39 44 43 41 39 38 38 37 35 33 30 28 25 22 19 17 17 17 15 13 10 8 7 5 4 3 4 6 7 7 8 9
5 5 8 5 6 8 5 4 7 5 5 13 25 31 43 39 39 41 44 43 41 37 36 37 37 35 33 31 29 26 23 19 17 16 16 15 13 11 9 8 5 3 4 5 5 8 9 10 11
4 5 9 4 8 6 4 7 8 12 11 3 25 38 43 41 41 44 42 42 39 34 31 32 32 32 31 29 28 24 22 19 17 15 15 14 13 11 10 7 5 3 3 5 7 9 8 8 8
4 3 10 8 12 22 9 10 9 23 24 17 19 32 43 47 44 40 38 37 36 32 29 28 28 28 27 25 23 22 20 18 15 14 14 13 12 12 11 9 8 6 6 7 9 11 11 11 12
6 10 9 8 11 13 2 7 10 19 15 7 30 40 46 49 47 42 40 38 37 33 31 26 24 23 22 21 19 18 17 15 13 11 9 8 8 9 11 8 8 8 8 8 11 14 15 17 18
8 7 8 6 4 6 8 8 20 34 18 21 34 48 37 37 39 44 40 36 31 30 29 26 22 20 18 16 15 15 13 12 12 9 8 5 3 2 3 6 8 11 12 12 14 16 17 20 18
4 2 4 3 10 8 9 18 6 23 14 22 39 40 31 30 35 38 36 34 32 30 30 25 23 20 17 15 13 11 13 13 11 10 7 4 2 4 5 6 7 10 13 14 17 19 19 20 21
3 3 6 3 10 7 14 7 8 25 14 18 33 34 35 30 28 33 33 33 31 27 28 29 26 23 21 18 15 12 14 13 13 11 10 9 8 7 9 11 10 12 15 18 20 20 21 23 23
5 3 3 8 6 17 7 9 9 8 17 21 30 29 35 33 32 31 30 29 32 31 26 26 25 24 23 22 21 18 16 14 10 9 5 6 7 8 12 14 13 16 19 18 16 19 19 22 26
10 10 7 7 6 5 14 1 13 11 5 14 25 27 34 37 36 31 27 26 31 32 31 29 28 27 26 19 13 21 20 19 11 5 5 7 8 9 10 12 13 17 17 16 15 16 19 22 23
8 8 12 13 14 6 4 14 11 6 5 22 25 26 32 36 34 31 29 27 23 25 25 28 25 27 24 14 21 23 25 21 16 12 10 9 7 6 6 8 11 13 15 15 15 20 22 21 20
8 10 9 8 12 6 4 1 5 6 6 17 30 39 36 41 40 36 30 24 20 19 27 24 31 26 19 21 26 30 30 21 17 14 12 11 10 10 11 13 16 18 19 19 20 19 17 17 16
10 7 13 11 6 4 8 4 7 6 7 7 15 25 36 40 39 36 32 27 21 15 20 22 26 22 25 24 31 34 16 11 4 8 6 11 10 11 13 12 11 13 15 15 13 13 13 13 15
6 4 8 8 9 6 4 3 11 8 6 7 8 26 37 42 39 39 34 28 22 24 17 4 21 10 15 19 21 17 7 1 8 4 5 12 11 9 9 7 7 9 10 10 11 14 15 13 14
3 4 8 6 2 3 8 8 4 7 12 5 7 26 32 41 40 38 35 31 27 24 12 12 21 15 11 8 9 5 3 2 2 4 5 3 2 3 5 6 7 9 11 12 14 15 15 14 14
7 4 5 5 5 5 7 5 7 17 12 9 10 28 31 45 41 39 37 31 27 21 17 18 19 12 11 12 10 6 3 1 1 2 3 3 3 6 11 13 14 15 14 12 12 13 14 15 16
4 8 3 4 6 4 5 8 5 11 14 25 26 38 39 40 41 37 38 33 30 25 21 20 22 22 15 12 10 9 7 8 7 7 5 7 8 11 11 15 15 13 13 14 15 16 16 16 16
7 5 5 4 5 3 5 4 3 11 10 9 19 33 34 33 36 36 34 35 34 32 29 25 21 16 13 11 10 11 10 9 8 5 6 9 10 10 9 10 10 11 13 15 16 16 16 15 14
5 6 7 4 6 6 3 3 8 10 13 10 10 17 27 32 33 34 36 38 39 36 30 25 23 21 18 14 10 8 7 5 5 4 4 4 6 6 7 9 11 12 12 13 14 13 12 12 13
3 2 9 3 3 5 4 4 6 12 10 14 11 24 35 37 37 37 39 40 41 36 32 29 24 21 18 13 10 6 4 3 3 2 2 3 4 5 8 9 10 11 12 12 11 10 11 11 11
3 4 6 1 2 0 4 3 4 11 11 18 22 28 29 38 40 40 42 44 43 40 36 31 26 21 17 13 8 6 7 5 2 0 2 4 4 4 6 8 9 11 11 11 9 10 10 10 10

GFSSGP_850_spd_162.txt.gz
Wind_Speed
12 12 8 4 2 4 3 6 2 3 1 3 2 3 3 1 3 3 4 14 33 36 33 29 24 20 17 19 20 21 20 19 18 18 16 15 14 13 13 14 14 14 13 12 10 9 8 8 9
11 10 9 4 5 3 5 5 7 5 1 6 4 1 0 3 4 3 9 23 34 36 35 30 26 21 18 17 20 21 21 21 20 19 18 16 13 13 13 14 14 14 13 11 10 9 7 7 7
11 13 8 5 5 8 6 5 8 3 4 4 3 3 3 4 3 2 6 28 34 36 33 31 26 22 19 17 20 22 21 21 20 19 18 16 15 14 14 13 13 13 12 10 9 7 5 5 5
9 8 2 4 8 6 6 5 5 4 2 3 2 3 6 5 4 2 16 28 32 34 32 30 27 23 20 18 20 21 21 21 20 19 18 17 15 14 13 13 12 11 9 8 7 6 5 4 3
11 5 2 3 5 4 4 6 3 1 3 4 4 3 5 6 5 7 15 29 31 35 33 30 28 24 20 18 19 21 20 19 19 18 17 15 14 13 13 12 11 10 8 7 6 5 5 4 4
6 3 2 7 3 5 3 16 3 2 5 4 4 4 7 10 4 5 20 30 34 32 33 31 29 25 22 19 18 19 19 18 18 17 16 14 13 11 10 9 9 7 6 5 4 4 5 6 6
6 4 5 3 4 1 3 14 6 4 8 10 7 3 4 10 8 8 23 31 33 33 33 32 30 27 23 19 17 17 18 17 16 16 14 13 11 10 9 7 6 5 5 5 5 5 6 7 8
5 4 4 3 4 4 5 12 12 26 20 28 18 7 6 18 15 16 24 28 33 32 33 32 31 29 26 22 19 17 16 17 16 15 13 11 10 9 7 6 6 5 4 4 4 4 5 6 7
7 1 3 3 5 4 2 6 8 7 17 10 12 11 8 12 17 20 29 32 35 33 33 33 32 30 27 24 21 19 17 17 17 16 14 12 10 8 7 6 5 3 3 3 4 5 6 7 8
5 4 8 7 6 3 2 2 5 2 2 8 14 14 12 13 20 27 34 38 37 35 33 33 33 31 29 27 24 22 20 18 16 16 15 13 12 10 8 7 5 3 3 2 3 5 7 8 10
3 5 6 4 3 2 3 6 6 5 3 9 15 18 20 18 23 29 35 37 38 36 33 33 32 32 30 28 26 24 21 18 16 15 16 15 14 12 9 7 6 5 4 4 4 5 7 8 10
1 3 4 2 1 2 2 7 9 7 9 10 9 20 22 22 31 34 36 40 38 35 33 32 33 32 31 27 25 24 21 18 17 14 14 15 14 13 10 8 6 6 7 6 7 7 8 9 10
4 2 1 2 8 11 9 10 9 19 25 15 9 15 24 30 33 30 34 35 34 34 31 30 31 31 29 27 25 22 19 18 16 14 13 12 12 11 10 9 8 8 8 8 9 11 11 12 14
1 0 4 2 9 10 3 5 4 12 21 23 18 24 30 35 34 33 34 36 35 32 29 27 26 25 25 24 22 20 18 16 14 12 10 10 9 10 11 9 7 6 7 10 12 12 15 16 18
4 1 2 6 7 6 2 10 23 28 20 15 10 20 32 35 31 32 32 35 35 33 30 27 25 24 22 19 18 15 13 11 9 8 8 6 4 4 6 6 5 6 9 11 13 15 19 21 21
3 2 3 4 10 7 8 23 7 26 21 31 30 15 26 32 33 29 31 33 34 33 30 26 25 24 22 20 16 13 10 9 8 7 6 6 6 6 6 6 5 7 9 12 16 20 22 24 24
6 1 3 4 12 7 16 2 7 19 18 27 31 19 29 32 33 31 30 32 33 31 28 27 25 24 24 21 18 13 12 10 8 9 10 10 11 12 10 9 9 10 12 16 18 20 21 24 24
2 3 4 5 7 13 11 12 11 3 19 24 27 17 30 35 35 36 33 32 29 27 27 28 27 27 26 21 20 18 15 14 10 10 13 13 11 14 16 14 13 13 14 17 18 19 20 22 25
1 2 3 7 8 3 15 7 12 24 7 13 22 24 29 32 34 35 36 33 30 29 30 30 28 26 25 26 25 23 22 18 12 9 12 13 11 11 13 11 11 13 15 15 17 16 19 25 24
2 3 5 10 11 6 8 10 15 7 6 15 23 25 34 31 34 35 36 33 32 31 29 27 26 25 26 25 23 16 16 16 16 12 15 20 15 13 9 10 11 10 9 13 19 17 20 21 19
4 5 4 5 10 7 4 5 5 8 9 12 19 32 39 40 39 37 34 31 29 27 28 29 27 27 23 23 22 16 18 19 13 11 13 19 11 10 7 13 15 16 13 12 14 15 15 17 17
2 4 6 8 5 3 4 4 6 8 9 10 16 26 33 38 38 37 32 29 25 25 25 26 24 22 18 17 18 25 24 9 2 10 16 24 17 12 9 9 9 8 8 9 10 14 15 14 15
4 6 7 7 6 5 4 1 5 11 6 8 13 26 39 43 41 36 31 29 26 22 22 21 22 16 13 11 10 12 13 14 6 9 19 22 9 2 4 6 9 10 12 12 12 11 12 13 15
4 4 5 2 2 4 8 5 3 9 14 8 19 28 40 41 42 36 33 31 27 20 21 18 15 12 14 6 8 9 14 12 16 25 16 11 7 7 8 9 10 11 11 9 10 11 13 15 16
5 3 2 2 4 5 9 2 7 11 8 11 18 30 38 45 43 39 34 30 22 23 18 19 22 12 8 11 12 15 15 19 17 13 7 5 5 5 5 5 4 6 8 10 12 14 15 15 15
5 7 4 7 6 5 8 7 7 12 11 26 35 37 38 36 43 39 36 29 27 27 21 20 18 15 12 13 17 16 17 16 14 10 8 6 4 2 4 4 6 9 11 14 15 15 14 14 13
5 6 4 3 4 2 6 7 4 4 8 9 23 30 34 34 37 36 33 30 31 29 25 21 19 19 18 17 17 18 16 14 13 10 8 6 6 6 6 6 8 11 12 14 13 14 12 12 11
8 8 3 3 4 5 5 4 5 8 16 10 14 23 27 33 33 35 34 33 32 28 28 25 22 22 22 18 16 16 13 10 7 5 5 6 6 5 7 7 10 13 12 12 12 12 12 12 15
4 4 3 2 3 5 5 5 6 14 21 20 16 25 34 34 33 36 38 36 35 33 30 29 26 23 21 17 15 12 10 8 6 5 6 6 6 6 6 8 10 9 11 11 12 12 12 13 14
4 5 8 3 2 3 4 5 3 7 10 20 22 30 35 35 39 43 44 40 38 37 33 30 26 22 17 14 11 7 6 5 3 4 4 5 4 4 5 8 7 10 11 11 11 11 11 12 13

GFSSGP_850_spd_165.txt.gz
Wind_Speed
12 13 10 5 4 3 6 5 3 5 3 2 1 3 2 1 3 0 5 21 27 36 34 29 25 21 21 21 21 21 20 18 16 13 12 13 12 13 13 13 12 12 11 10 9 8 7 7 8
11 11 11 3 6 9 9 6 11 8 1 5 2 2 4 1 4 1 5 21 33 37 34 30 24 21 20 19 20 20 19 18 16 14 15 14 12 12 12 13 12 12 11 10 9 8 7 6 5
12 15 8 4 7 17 11 11 14 6 5 4 3 3 2 2 3 1 1 24 38 37 33 29 24 21 19 18 19 19 19 18 17 16 16 14 12 11 12 12 12 11 10 9 8 7 5 5 3
11 8 1 7 17 16 14 7 12 9 6 5 4 4 2 6 3 5 8 27 39 36 33 29 24 21 18 17 18 19 19 18 18 17 15 13 12 12 12 11 11 10 9 7 5 4 3 3 4
15 5 7 8 17 5 11 7 8 9 5 5 6 3 2 5 6 6 13 29 39 36 33 30 25 21 17 16 17 18 18 18 17 16 15 13 12 12 12 11 10 9 7 5 4 4 5 5 6
7 3 6 16 12 10 6 14 6 9 6 5 4 6 2 5 5 11 22 32 37 37 34 30 26 22 18 15 16 18 17 17 17 16 15 14 12 12 11 10 9 8 8 7 6 6 6 7 8
8 5 13 5 19 9 14 11 13 10 10 10 3 4 2 6 8 16 28 34 38 37 34 31 27 23 19 16 16 17 17 17 16 16 15 13 12 11 10 10 9 8 7 6 6 7 7 8 10
6 4 8 8 10 11 11 10 13 18 19 5 5 5 3 11 14 19 27 33 37 36 34 31 29 26 22 19 17 16 16 16 16 15 14 12 11 10 9 8 7 6 5 5 5 6 7 8 9
7 7 13 14 14 9 8 12 11 9 23 15 11 11 4 8 17 23 27 29 28 35 34 32 30 28 24 21 19 17 16 16 15 14 13 11 9 8 7 6 5 5 4 4 5 5 6 8 9
8 9 13 7 8 8 8 10 6 6 11 21 16 10 12 12 20 26 30 36 30 30 34 32 31 29 27 23 21 19 17 16 15 14 12 10 9 8 7 6 5 4 4 5 6 6 8 9 10
4 9 9 9 8 5 5 5 3 5 11 14 9 13 15 19 21 25 28 32 37 30 34 33 32 30 27 26 22 20 17 15 14 12 12 12 11 9 7 5 5 5 6 6 7 8 10 9 10
6 7 6 7 3 3 4 5 5 11 11 6 2 6 17 20 21 24 27 32 34 31 31 32 31 30 28 25 23 21 18 15 13 11 11 12 12 10 9 7 7 6 8 8 10 12 12 11 12
10 5 7 14 8 7 8 14 9 18 22 18 12 3 12 15 16 21 25 29 32 32 31 31 30 29 28 26 25 22 19 15 13 11 10 11 11 10 10 8 8 7 8 9 11 12 13 13 14
2 5 10 7 12 7 6 13 8 21 14 12 11 8 13 15 18 21 26 31 33 32 30 28 28 28 28 27 25 21 18 15 13 11 11 10 10 9 9 9 8 6 7 10 12 13 15 17 19
4 5 5 14 11 8 8 19 24 28 25 25 17 9 7 16 18 24 27 30 31 28 28 27 25 26 27 25 22 19 16 13 12 9 8 8 6 5 5 6 6 6 9 10 12 16 18 20 20
5 6 10 8 14 13 9 28 16 25 26 29 23 15 5 14 19 23 26 27 29 29 27 25 23 23 24 24 20 17 15 14 10 7 5 5 3 2 4 4 6 8 11 14 17 19 21 20 22
2 4 12 9 14 10 23 10 14 21 13 25 22 15 8 15 18 23 23 23 27 27 26 23 20 20 20 20 17 15 14 9 7 5 3 4 5 6 9 11 13 14 15 19 22 21 20 21 22
5 7 6 8 11 18 16 22 17 3 16 18 13 15 14 20 21 26 25 22 24 26 25 22 21 21 20 19 16 14 11 10 6 6 7 10 11 11 10 15 19 18 18 20 26 23 22 21 24
4 4 6 8 6 5 16 16 21 28 18 17 11 16 16 21 20 26 26 23 24 25 26 22 23 22 20 19 17 14 8 7 5 4 2 5 3 0 7 5 16 19 20 25 25 24 23 23 25
6 8 9 11 13 6 12 14 14 19 21 22 20 13 20 23 21 27 29 27 26 25 25 22 21 20 19 17 14 11 11 8 11 12 10 7 11 11 14 26 27 13 30 27 23 23 21 19 18
8 9 7 8 8 10 10 15 16 13 23 23 12 17 24 29 28 30 32 30 27 25 23 24 21 19 17 18 15 9 11 8 5 6 7 12 24 29 18 27 31 28 24 18 18 14 12 13 14
11 8 10 9 5 6 4 5 16 17 16 19 17 20 24 26 27 31 32 30 30 26 26 22 21 17 14 14 16 18 13 7 7 4 7 10 17 18 14 22 11 8 7 6 8 9 11 11 14
6 6 6 8 7 7 8 5 13 16 16 17 19 25 27 29 29 31 31 28 30 28 23 22 18 14 12 11 12 14 11 6 9 11 6 9 4 9 6 3 4 4 5 7 8 9 11 13 13
6 8 6 5 5 8 14 11 13 14 23 21 22 27 30 31 30 27 25 26 26 24 21 19 19 16 12 12 12 10 12 11 10 13 11 12 10 7 5 5 4 4 5 6 8 10 12 12 13
13 9 5 5 6 8 15 10 16 18 21 23 24 31 33 34 29 28 28 27 27 25 22 20 16 18 16 17 16 17 17 15 14 11 10 9 10 9 6 2 5 5 5 7 9 11 12 12 12
18 9 3 7 7 12 10 11 12 18 16 26 29 31 35 33 31 32 29 28 28 24 23 22 23 19 19 19 20 19 15 16 17 15 14 11 8 4 3 4 3 6 8 10 11 10 11 11 12
13 11 1 3 4 5 10 15 9 8 15 17 25 28 33 33 33 31 29 30 29 26 23 29 20 24 22 20 20 19 19 18 16 12 9 6 6 4 2 3 7 9 9 9 9 9 11 11 11
9 9 6 3 7 8 14 20 11 13 19 18 22 29 30 29 30 32 32 29 30 28 27 28 24 25 24 23 22 22 19 15 12 11 9 8 5 2 1 3 5 7 7 8 10 11 11 10 12
8 11 7 4 5 9 9 16 18 13 20 23 25 33 35 34 34 32 31 33 33 28 28 29 29 27 26 24 23 20 18 15 13 11 9 6 3 2 2 5 7 8 9 9 9 10 10 10 13
18 15 16 8 13 5 5 11 4 16 22 23 28 31 33 35 35 38 38 37 34 32 31 32 31 29 26 23 20 18 16 14 12 10 7 5 2 2 4 6 7 8 8 8 8 9 10 11 13

GFSSGP_850_spd_168.txt.gz
Wind_Speed
10 10 7 6 7 8 17 17 15 6 7 3 1 7 2 4 4 4 7 12 22 25 29 27 24 21 19 21 25 23 21 18 15 13 12 12 12 13 13 13 12 10 9 8 7 6 6 6 5
7 8 9 10 9 15 16 17 14 14 3 2 2 5 7 0 1 7 15 14 23 26 30 28 24 21 20 22 24 22 20 17 15 13 12 12 12 12 12 11 10 9 9 8 6 6 5 5 4
9 11 12 6 15 20 17 16 16 10 7 5 2 4 2 3 3 9 8 22 26 26 29 28 24 21 21 23 23 21 19 17 14 13 13 12 11 11 11 10 10 9 8 7 6 5 4 3 2
9 9 10 13 20 24 25 12 14 13 12 6 6 5 5 5 5 6 13 25 27 27 26 28 24 21 20 21 21 19 18 16 14 14 13 12 11 10 10 10 9 8 7 5 4 3 1 2 3
13 12 11 18 25 22 17 19 11 14 16 11 9 6 2 6 7 10 16 26 28 27 24 27 24 20 18 19 19 18 18 17 16 15 13 11 10 10 9 9 8 7 5 3 2 2 3 5 6
15 15 12 21 24 23 15 22 18 15 18 10 9 8 3 6 9 15 21 26 27 27 26 28 25 20 18 18 18 18 18 17 16 15 12 10 8 8 8 7 7 6 4 4 4 5 7 8 10
20 13 21 22 22 21 20 21 21 19 18 16 5 6 5 8 11 18 23 27 27 26 27 29 25 21 18 17 18 17 16 16 15 13 11 9 7 7 6 6 6 5 5 5 6 7 9 10 12
21 13 24 24 19 22 19 25 21 23 20 12 6 7 7 11 16 19 23 25 26 25 25 28 26 22 20 19 18 17 15 14 13 11 10 8 7 6 5 5 5 5 5 6 7 8 9 10 11
16 13 19 27 22 19 14 19 23 20 20 14 14 8 2 15 19 22 25 26 26 25 25 25 25 20 18 18 20 18 16 14 12 11 9 7 5 5 4 4 3 4 5 6 7 8 9 11 11
15 16 24 17 20 16 16 19 24 20 23 22 24 7 9 15 20 24 28 31 30 28 26 25 25 23 20 16 20 17 17 13 11 9 8 6 7 5 4 2 3 5 6 7 8 9 11 12 10
17 21 18 17 13 17 16 15 16 17 19 26 24 21 15 16 19 23 26 28 30 29 27 25 24 25 20 17 17 15 13 12 11 10 9 9 5 4 1 2 4 6 8 7 10 10 10 12 12
17 17 23 12 20 15 17 16 16 20 15 11 4 4 16 18 20 22 26 29 29 29 28 27 25 28 23 18 16 15 13 11 9 8 7 6 4 6 5 3 4 7 7 9 10 10 13 14 15
16 20 17 21 11 16 14 15 18 20 21 9 2 1 14 16 18 19 22 26 27 28 27 26 25 27 27 22 17 15 13 11 9 6 5 4 3 5 4 5 5 6 7 8 11 12 14 15 15
9 22 17 23 20 19 17 20 22 20 22 15 9 9 11 17 18 19 24 28 29 27 27 26 24 27 26 22 19 16 12 10 7 5 4 4 3 4 4 4 4 6 7 10 12 13 16 17 18
10 12 16 21 19 17 16 21 28 26 16 14 10 7 5 15 17 21 24 27 27 26 28 26 23 25 24 21 20 14 11 8 6 5 6 5 3 1 2 0 0 4 7 11 13 16 16 18 20
15 15 16 18 21 21 18 23 22 28 26 24 19 12 8 8 15 19 23 26 25 24 24 24 21 21 24 16 16 11 9 7 5 5 4 5 7 6 4 1 3 4 5 10 16 21 25 23 25
11 13 20 18 18 21 21 12 24 20 25 22 23 19 13 10 14 18 22 24 26 24 23 23 21 21 21 18 15 12 11 8 7 6 6 10 10 8 7 8 6 6 7 8 19 24 26 30 31
9 13 7 16 16 20 23 23 16 11 21 24 19 20 17 13 14 18 21 22 23 22 23 22 19 19 20 17 14 12 11 10 9 11 10 9 9 10 10 12 10 5 6 16 20 23 23 31 29
6 7 8 8 2 11 19 22 21 25 11 16 19 17 17 19 15 16 20 21 21 21 22 20 19 20 20 17 15 14 13 12 13 11 7 6 9 12 13 13 10 14 23 22 19 23 26 30 18
10 11 10 9 13 10 13 19 19 19 22 22 17 18 18 19 19 19 21 20 21 22 22 21 20 21 19 17 15 16 17 16 13 11 8 8 9 13 15 8 10 12 20 19 11 23 21 14 11
11 11 7 9 4 9 12 16 18 22 23 26 22 17 18 24 24 22 23 22 21 20 21 21 21 22 19 17 17 17 14 12 11 9 9 15 15 14 12 18 19 16 12 10 11 12 10 10 9
12 7 10 10 9 12 15 7 24 22 23 21 26 20 21 27 24 24 26 23 22 22 19 20 21 21 19 18 16 15 13 11 10 9 12 7 11 3 5 1 0 2 2 5 5 9 11 11 10
9 4 8 10 10 12 11 7 14 24 22 23 22 25 23 27 25 26 27 25 22 23 23 22 22 19 16 16 15 14 12 9 12 12 10 11 3 6 6 7 8 7 7 6 7 8 11 12 10
4 8 9 9 9 12 16 14 12 18 27 25 25 28 26 27 26 27 28 26 22 24 26 23 21 18 16 15 13 13 12 12 12 11 8 6 2 3 6 7 7 6 5 4 7 10 10 9 8
12 10 7 7 8 12 18 12 19 18 24 26 26 31 30 29 29 31 32 28 26 26 23 23 20 19 16 13 12 11 12 12 10 10 7 6 5 2 3 4 4 5 6 7 7 7 6 6 7
16 13 6 8 12 13 8 13 12 19 13 30 31 31 30 31 33 33 32 31 29 27 24 23 23 21 20 17 15 15 14 13 10 7 7 5 3 2 1 2 3 4 5 5 4 4 6 7 7
13 16 11 9 16 9 14 17 13 18 18 18 29 32 32 31 31 32 32 32 30 28 25 24 26 25 22 22 21 18 14 14 12 11 9 6 4 2 1 2 3 4 4 3 5 4 5 7 7
13 12 10 8 8 14 13 20 12 20 16 22 27 29 35 35 34 34 34 33 29 27 26 29 27 27 25 22 20 17 17 15 13 11 8 6 4 3 1 1 3 4 5 5 7 5 6 7 6
10 12 13 12 13 11 16 15 17 14 19 24 25 34 38 38 36 36 34 34 31 30 28 29 28 26 24 23 22 21 17 14 12 9 8 6 4 2 2 3 5 5 5 5 6 6 6 7 9
18 19 20 10 16 15 15 11 18 17 16 25 28 36 41 41 40 40 41 35 32 32 30 30 26 25 24 24 22 18 15 13 12 10 8 5 3 3 5 6 6 5 4 5 6 7 7 8 8

GFSSGP_850_spd_171.txt.gz
Wind_Speed
9 9 6 11 8 9 20 22 22 7 7 5 6 6 4 6 12 5 7 9 19 22 29 27 24 21 19 18 21 21 18 17 14 13 12 11 11 11 10 10 8 6 5 4 4 4 3 3 3
7 10 13 14 11 17 17 22 23 11 7 9 3 5 5 4 7 14 17 14 21 22 28 27 25 21 18 18 21 21 19 17 14 12 11 10 10 10 9 9 7 5 4 4 3 3 2 2 1
10 12 16 7 17 21 20 22 21 14 13 7 4 6 4 7 5 9 7 17 21 22 25 27 24 20 18 19 22 21 19 16 13 11 11 10 9 9 9 7 6 5 5 4 3 2 1 2 2
9 12 14 15 23 27 28 25 18 14 12 12 10 3 7 5 8 7 14 19 21 22 23 26 23 19 18 20 21 21 18 15 12 11 11 10 9 9 8 7 6 6 4 3 1 1 2 4 6
17 17 12 19 26 26 24 32 24 11 15 18 14 9 9 9 9 14 20 21 20 22 22 26 22 19 19 20 20 19 17 14 12 12 11 10 9 8 8 7 6 5 2 1 2 4 6 8 9
17 24 13 22 26 27 26 25 36 13 20 19 16 12 8 11 12 15 20 23 22 23 21 25 23 20 19 20 20 19 16 14 13 13 11 9 8 8 7 6 4 3 2 3 6 7 9 11 13
20 16 22 25 22 27 26 31 17 14 19 19 12 17 11 13 13 16 20 22 23 22 22 26 23 22 19 18 18 17 16 15 14 12 10 8 7 6 5 4 3 3 5 6 8 10 12 14 15
25 17 27 25 23 26 23 30 23 26 25 22 11 8 16 16 16 19 21 23 23 22 22 25 24 22 20 19 18 18 16 15 13 11 9 7 5 4 3 2 2 4 5 7 8 9 11 13 15
22 17 21 27 26 23 24 21 20 25 26 26 18 14 18 17 19 20 24 24 24 23 22 22 22 20 19 20 21 18 17 15 13 11 9 5 3 3 1 1 2 3 5 6 8 10 12 14 15
19 16 27 25 21 24 28 19 19 24 25 27 15 12 14 15 19 23 25 27 26 25 23 23 22 22 20 18 21 17 16 14 11 9 9 8 7 7 8 3 2 4 5 6 11 11 15 14 15
24 22 21 27 30 27 20 25 18 23 21 25 24 18 17 16 17 22 23 27 27 26 25 24 24 23 20 19 20 15 13 11 10 10 10 9 6 3 2 3 5 6 9 6 9 11 12 12 14
24 28 25 32 27 22 19 19 20 26 29 21 29 23 24 19 19 21 23 25 26 27 25 25 24 26 21 17 18 14 13 12 10 10 10 9 7 8 10 5 5 4 2 6 6 8 11 12 14
20 23 27 25 25 21 22 20 23 23 17 9 8 9 18 18 20 20 22 23 25 27 26 26 23 23 23 20 17 15 13 11 10 10 9 7 7 8 6 7 4 5 3 3 4 6 9 11 12
19 24 18 25 27 27 16 22 25 22 24 18 11 9 14 20 20 21 23 24 26 26 27 26 23 24 21 18 19 17 13 12 10 9 8 9 7 9 6 5 4 5 4 5 3 9 6 7 9
17 20 16 27 24 27 24 21 26 29 25 21 15 15 18 19 22 22 23 26 27 28 27 27 24 23 22 19 18 15 12 10 10 9 10 9 9 9 10 6 5 5 5 3 10 10 11 6 6
14 18 18 23 25 25 24 26 25 30 29 30 24 17 15 15 22 22 23 25 27 29 30 28 23 23 22 21 18 13 13 11 10 9 8 9 10 10 9 6 8 9 6 6 10 12 11 10 10
18 16 23 25 28 27 26 22 23 32 31 25 26 22 18 13 17 22 21 28 27 28 29 26 24 23 22 17 15 15 15 12 11 10 8 10 9 10 10 9 7 7 6 6 11 15 16 12 15
10 21 19 23 23 27 30 24 23 30 37 30 27 29 23 20 21 21 22 27 28 29 28 27 25 25 26 19 19 16 13 12 10 11 10 10 8 9 8 8 9 6 5 11 21 19 11 12 15
12 15 13 12 17 22 22 25 25 16 25 25 31 24 24 22 19 23 24 28 30 28 27 26 23 22 24 22 20 17 15 14 12 12 9 8 7 7 6 2 6 12 10 15 17 14 14 13 18
13 13 16 14 10 7 15 23 26 25 20 23 27 29 30 24 23 22 25 30 31 32 27 25 23 26 23 22 20 18 17 16 11 10 11 11 13 11 9 8 9 16 13 14 13 12 11 10 14
14 17 16 17 11 16 15 18 22 26 25 28 24 30 26 26 27 26 30 29 30 29 29 27 27 27 23 22 22 23 22 15 14 11 7 10 6 10 10 13 16 13 6 7 6 7 9 9 10
15 15 13 14 11 13 20 12 23 25 25 24 28 25 29 28 28 31 31 27 30 30 28 28 28 27 24 25 19 23 17 13 11 14 12 8 4 2 1 1 3 2 3 4 6 8 9 10 11
14 7 11 15 15 16 17 12 17 28 25 26 25 31 26 30 32 33 36 18 30 32 29 29 29 27 24 22 18 16 13 11 12 16 13 4 3 3 4 5 3 2 3 5 7 8 9 10 8
12 11 14 14 14 13 19 13 18 25 29 27 27 36 32 32 34 34 36 46 36 32 29 25 29 28 24 19 16 15 11 17 14 8 7 6 5 6 5 3 4 6 7 8 9 10 9 9 6
11 15 10 10 11 13 19 13 21 22 27 30 29 37 37 34 35 36 41 40 34 32 33 29 27 23 22 20 14 12 16 15 10 11 10 9 8 4 3 4 5 6 7 8 8 7 8 8 9
11 15 9 6 10 13 17 16 16 18 11 34 36 39 37 37 37 35 39 39 36 34 33 32 25 23 21 19 18 16 10 14 14 13 11 10 7 4 3 4 4 6 6 6 7 7 8 10 11
16 15 14 8 16 11 12 11 17 15 14 24 30 39 36 37 34 38 41 39 34 33 31 30 30 26 24 23 20 19 16 15 15 14 11 9 6 4 3 2 4 4 4 6 8 8 9 10 11
16 10 10 8 10 13 14 21 11 18 15 14 25 31 38 36 33 42 42 42 36 35 33 30 28 28 27 23 21 19 16 14 13 12 10 7 6 2 2 3 4 5 6 7 9 8 9 10 8
12 15 15 14 12 10 12 12 15 16 19 19 23 37 40 36 42 38 38 49 42 35 33 33 31 30 26 23 21 18 17 15 12 11 9 7 4 3 4 6 6 7 6 7 8 9 8 9 10
10 16 18 11 17 13 16 15 5 18 20 18 24 38 41 40 40 34 29 38 41 37 35 33 32 29 26 24 22 20 17 13 12 10 8 6 6 6 7 8 7 6 6 7 8 8 8 8 8

GFSSGP_850_spd_174.txt.gz
Wind_Speed
8 5 5 9 7 8 18 22 22 26 18 30 35 16 7 18 16 4 7 10 20 21 27 27 25 23 20 19 19 17 15 14 14 14 14 14 13 12 11 9 7 7 6 5 4 4 2 2 2
11 8 11 11 9 15 16 22 25 23 23 13 10 4 1 19 24 20 17 14 18 21 27 27 25 22 20 19 19 17 16 14 13 13 13 13 11 10 9 7 6 5 5 4 3 2 2 2 2
9 6 14 6 15 18 18 24 21 25 14 11 5 4 5 9 19 22 23 24 20 22 27 26 25 22 20 19 20 18 16 14 12 11 11 11 10 9 8 7 5 5 4 4 3 2 2 3 4
6 8 12 14 21 25 27 24 27 18 18 14 7 4 12 13 15 16 26 22 18 23 25 25 24 21 20 20 20 18 16 13 11 10 10 10 9 9 8 7 6 5 5 3 2 2 3 5 7
14 14 11 17 25 26 22 30 37 27 22 17 11 6 15 17 17 21 28 26 26 24 25 25 22 21 20 20 19 17 16 13 10 10 10 9 9 9 8 7 5 5 3 1 2 4 7 9 10
16 21 15 18 23 25 25 32 30 27 30 12 18 13 15 18 22 23 23 22 27 24 23 26 23 21 21 20 19 17 15 12 11 11 10 9 9 8 8 6 4 2 1 3 5 8 9 11 12
17 14 20 23 21 25 23 31 24 21 23 21 17 17 20 19 22 24 23 25 25 21 24 27 24 22 21 20 19 18 15 12 11 11 9 8 8 7 6 4 2 2 4 5 7 9 11 12 13
24 15 25 23 21 27 22 30 32 32 19 21 16 8 19 25 25 25 23 27 26 19 25 27 25 23 22 21 19 18 15 13 13 11 10 9 7 6 5 4 2 2 4 5 7 9 11 13 14
23 16 18 26 25 20 27 24 29 30 23 19 21 24 27 26 24 24 25 27 25 23 22 24 25 24 23 22 21 18 17 15 13 12 10 7 6 4 2 1 1 2 4 5 8 10 12 10 11
18 16 25 23 23 23 25 27 32 22 17 23 28 24 24 23 23 26 28 29 26 24 25 23 23 23 21 23 22 20 18 16 14 12 11 10 5 2 1 4 5 5 6 4 8 8 11 8 11
22 21 22 23 31 33 30 26 34 19 18 27 29 25 22 22 23 25 26 28 26 25 25 22 21 23 19 21 23 21 19 16 13 12 14 10 11 8 7 1 3 6 4 3 9 7 9 10 9
19 25 29 27 32 31 25 29 30 31 18 28 33 29 27 25 25 27 27 31 29 29 28 27 26 27 22 19 20 18 16 14 11 11 14 11 12 8 6 7 3 6 5 5 6 5 7 8 11
19 19 25 28 32 30 32 24 29 27 20 27 26 27 32 26 25 26 28 32 32 33 33 30 27 27 25 17 22 17 15 13 12 14 13 10 11 10 10 9 13 9 10 5 9 5 8 8 9
22 20 19 21 28 29 26 23 28 23 19 29 11 8 29 28 26 24 30 33 37 34 36 34 31 29 23 21 21 19 21 15 18 11 10 12 11 12 9 12 6 4 9 10 7 10 11 11 12
21 18 16 21 23 22 24 24 25 27 27 24 14 11 17 30 29 26 28 37 38 38 37 34 30 31 24 20 25 23 19 17 12 9 13 10 12 13 12 6 9 6 11 4 6 7 10 9 11
20 15 16 20 19 23 28 26 24 28 29 30 26 19 21 20 24 29 28 31 42 38 36 32 29 31 29 23 28 24 20 11 14 14 14 13 12 9 10 7 4 11 6 5 6 8 12 12 16
16 16 20 21 18 20 27 28 27 31 31 30 28 19 23 17 26 31 36 39 42 41 37 31 30 35 31 25 24 19 19 17 16 10 6 7 8 8 10 7 10 6 2 5 10 13 15 15 14
13 14 18 20 17 21 27 28 25 33 34 32 33 29 23 23 26 27 47 45 38 39 38 34 32 30 31 24 24 19 19 14 13 11 10 8 8 8 10 8 9 4 5 12 12 15 10 10 14
21 14 21 20 23 22 26 26 27 27 30 29 34 31 28 27 21 25 27 41 40 39 37 36 31 29 31 27 26 23 22 15 13 14 11 10 12 12 6 3 8 8 9 13 13 12 8 6 13
15 11 24 20 11 14 19 27 29 26 25 31 33 26 27 27 26 22 25 32 33 34 32 35 34 32 31 31 29 24 22 18 17 16 14 12 11 9 10 9 9 10 7 13 8 7 4 3 12
16 18 17 17 14 19 25 21 24 28 29 27 39 34 34 30 28 21 30 32 32 31 34 35 31 33 30 30 25 21 21 23 14 13 15 15 12 10 8 8 9 6 5 9 1 3 5 6 10
14 17 20 17 4 7 16 12 20 24 22 21 22 27 33 31 33 32 22 31 36 35 35 29 28 35 30 31 26 25 29 23 18 17 14 10 6 3 3 1 2 2 2 3 4 5 7 5 8
14 12 17 17 13 15 18 15 18 21 26 24 22 26 33 39 36 37 32 33 36 33 29 28 31 33 29 26 27 27 20 18 18 17 14 6 6 5 5 4 3 1 4 5 5 6 5 7 8
10 10 20 12 13 14 21 18 19 20 26 24 23 31 36 34 36 36 40 37 34 33 31 30 33 33 33 25 25 23 20 20 21 18 11 9 9 8 8 5 3 3 4 5 7 9 9 10 9
12 7 9 10 11 14 23 20 18 26 31 27 25 32 29 33 35 43 42 41 41 36 33 32 37 31 35 25 23 22 20 22 17 12 12 10 9 10 7 4 4 6 7 8 8 9 10 12 11
14 14 10 8 5 11 22 20 18 13 30 37 39 35 34 33 47 52 51 52 50 43 27 32 37 33 33 25 24 25 24 20 17 15 16 16 10 8 7 7 6 7 8 8 9 10 13 13 14
13 17 4 4 18 16 13 22 19 13 13 26 27 36 38 40 47 49 51 47 49 48 44 39 36 32 30 31 27 22 21 24 25 22 20 13 9 8 8 6 6 7 8 11 11 11 13 14 10
16 2 8 8 5 8 10 17 12 14 14 18 26 30 39 42 47 49 60 60 54 52 45 41 40 38 33 29 28 30 29 23 22 22 17 13 12 8 7 7 7 8 9 13 10 11 13 11 10
10 15 13 14 12 13 9 8 10 15 10 9 24 34 38 42 41 53 54 49 75 58 50 48 38 35 30 30 33 30 26 23 20 18 15 13 10 8 8 9 9 9 11 14 15 13 12 12 12
15 15 14 9 16 13 11 13 15 7 15 11 14 33 39 37 42 50 40 39 48 45 43 42 38 38 34 32 30 28 24 21 19 16 14 11 9 10 11 11 10 9 12 14 13 11 10 10 9